Shirley, NY

3:16 PM EST on December 17, 2017 (GMT -0500)
Brookhaven

Weather History for KHWV - August, 2012

Change the Weather History Date:

Friday, August 10, 2012

  Actual Average (KISP) Record (KISP)
Temperature  
Mean Temperature 78 °F -  
Max Temperature 82 °F 79 °F 91 °F (2009)
Min Temperature 75 °F 65 °F 51 °F (1964)
Cooling Degree Days 14    
Growing Degree Days 28 (Base 50)    
Moisture  
Dew Point 74 °F    
Average Humidity 88    
Maximum Humidity 94    
Minimum Humidity 79    
Precipitation  
Precipitation 0.78 in - - ()
Sea Level Pressure  
Sea Level Pressure 29.84 in    
Wind  
Wind Speed 9 mph (South)    
Max Wind Speed 29 mph    
Max Gust Speed 39 mph    
Visibility 8 miles    
Events Rain    
Averages and records for this station are not official NWS values.
T = Trace of Precipitation, MM = Missing Value Source: NWS Daily Summary

Daily Weather History Graph

Daily Weather History Graph

Search for Another Location

Airport or City:

Trip Planner

Search our weather history database for the weather conditions in past years. The results will help you decide how hot, cold, wet, or windy it might be!

Date:

Astronomy

Aug. 10, 2012 Rise Set
Actual Time 5:57 AM EDT 7:55 PM EDT
Civil Twilight 5:27 AM EDT 8:25 PM EDT
Nautical Twilight 4:50 AM EDT 9:01 PM EDT
Astronomical Twilight 4:11 AM EDT 9:41 PM EDT
Moon No Moon Rise 2:34 PM EDT (8/10)
Length of Visible Light 14h 58m
Length of Day
13h 58m
Last Quarter, 42% of the Moon is Illuminated
Aug 10
Last Quarter
Aug 17
New
Aug 24
First Quarter
Aug 31
Full
Sep 8
Last Quarter

Hourly Weather History & Observations

Time (EDT) Temp. Heat Index Dew Point Humidity Pressure Visibility Wind Dir Wind Speed Gust Speed Precip Events Conditions
12:24 AM 77.0 °F - 73.4 °F 89% 29.93 in 10.0 mi SSE 5.8 mph - N/A   Mostly Cloudy
12:56 AM 75.9 °F - 73.0 °F 91% 29.92 in 10.0 mi SSE 6.9 mph - N/A   Scattered Clouds
1:08 AM 75.2 °F - 73.4 °F 94% 29.92 in 10.0 mi SSE 5.8 mph - N/A   Mostly Cloudy
1:15 AM 77.0 °F - 73.4 °F 89% 29.92 in 10.0 mi South 5.8 mph - N/A   Mostly Cloudy
1:22 AM 77.0 °F - 73.4 °F 89% 29.91 in 10.0 mi South 6.9 mph - N/A   Mostly Cloudy
1:33 AM 77.0 °F - 73.4 °F 89% 29.91 in 10.0 mi South 8.1 mph - N/A   Scattered Clouds
1:56 AM 77.0 °F - 73.9 °F 90% 29.90 in 10.0 mi South 6.9 mph - N/A   Partly Cloudy
2:12 AM 77.0 °F - 73.4 °F 89% 29.90 in 10.0 mi South 6.9 mph - N/A   Mostly Cloudy
2:25 AM 77.0 °F - 73.4 °F 89% 29.90 in 9.0 mi SSE 6.9 mph - N/A   Scattered Clouds
2:56 AM 75.9 °F - 73.9 °F 94% 29.89 in 8.0 mi South 5.8 mph - N/A   Scattered Clouds
3:04 AM 77.0 °F - 73.4 °F 89% 29.89 in 8.0 mi South 5.8 mph - N/A   Mostly Cloudy
3:23 AM 77.0 °F - 73.4 °F 89% 29.89 in 9.0 mi South 6.9 mph - N/A   Scattered Clouds
3:56 AM 75.9 °F - 73.9 °F 94% 29.88 in 8.0 mi SSE 5.8 mph - N/A   Scattered Clouds
4:48 AM 77.0 °F - 73.4 °F 89% 29.88 in 8.0 mi South 9.2 mph - N/A   Mostly Cloudy
4:56 AM 77.0 °F - 73.9 °F 90% 29.88 in 8.0 mi South 10.4 mph - N/A   Mostly Cloudy
5:45 AM 77.0 °F - 73.4 °F 89% 29.89 in 8.0 mi South 8.1 mph - N/A   Scattered Clouds
5:56 AM 77.0 °F - 73.9 °F 90% 29.89 in 9.0 mi South 6.9 mph - N/A   Partly Cloudy
7:17 AM 78.8 °F - 75.2 °F 89% 29.89 in 9.0 mi South 10.4 mph - N/A   Mostly Cloudy
7:42 AM 78.8 °F - 75.2 °F 89% 29.88 in 10.0 mi South 10.4 mph - N/A   Scattered Clouds
7:53 AM 78.8 °F - 75.2 °F 89% 29.88 in 10.0 mi South 10.4 mph - N/A   Partly Cloudy
8:56 AM 80.1 °F 85.1 °F 75.0 °F 85% 29.88 in 10.0 mi South 12.7 mph 18.4 mph N/A   Mostly Cloudy
9:26 AM 80.6 °F 85.4 °F 73.4 °F 79% 29.89 in 10.0 mi South 13.8 mph 18.4 mph N/A   Scattered Clouds
9:56 AM 80.1 °F 84.5 °F 73.9 °F 81% 29.89 in 10.0 mi South 12.7 mph - N/A   Mostly Cloudy
10:33 AM 80.6 °F 85.4 °F 73.4 °F 79% 29.88 in 10.0 mi South 12.7 mph - N/A   Mostly Cloudy
10:56 AM 82.0 °F 88.6 °F 75.0 °F 79% 29.87 in 10.0 mi SSE 16.1 mph 21.9 mph N/A   Overcast
11:56 AM 81.0 °F 86.7 °F 75.0 °F 82% 29.86 in 10.0 mi SSE 13.8 mph 23.0 mph N/A   Mostly Cloudy
12:37 PM 78.8 °F - 75.2 °F 89% 29.84 in 10.0 mi SE 8.1 mph 18.4 mph N/A   Mostly Cloudy
12:56 PM 78.1 °F - 75.0 °F 90% 29.83 in 10.0 mi SE 11.5 mph 17.3 mph 0.00 in Rain Light Rain
1:36 PM 77.0 °F - 75.2 °F 94% 29.82 in 1.8 mi ESE 8.1 mph - 0.17 in Rain Heavy Rain
1:45 PM 77.0 °F - 75.2 °F 94% 29.81 in 3.0 mi ESE 11.5 mph 17.3 mph 0.22 in Rain Heavy Rain
1:56 PM 77.0 °F - 75.0 °F 94% 29.79 in 2.0 mi SE 10.4 mph 20.7 mph 0.34 in Rain Heavy Rain
2:03 PM 77.0 °F - 75.2 °F 94% 29.80 in 1.8 mi SE 9.2 mph 23.0 mph 0.05 in Rain Heavy Rain
2:07 PM 77.0 °F - 75.2 °F 94% 29.80 in 3.0 mi SE 12.7 mph 23.0 mph 0.06 in Rain Heavy Rain
2:19 PM 77.0 °F - 75.2 °F 94% 29.79 in 1.8 mi SSE 17.3 mph - 0.20 in Rain Heavy Rain
2:30 PM 77.0 °F - 75.2 °F 94% 29.79 in 1.5 mi South 21.9 mph 32.2 mph 0.34 in Rain Heavy Rain
2:39 PM 75.2 °F - 71.6 °F 89% 29.76 in 2.0 mi SSE 28.8 mph 39.1 mph 0.42 in Rain Heavy Rain
2:46 PM 75.2 °F - 71.6 °F 89% 29.77 in 4.0 mi South 23.0 mph 39.1 mph 0.44 in Rain Rain
2:56 PM 75.0 °F - 72.0 °F 90% 29.78 in 9.0 mi South 19.6 mph 35.7 mph 0.44 in Rain Light Rain
3:06 PM 75.2 °F - 73.4 °F 94% 29.79 in 10.0 mi SW 11.5 mph 21.9 mph 0.00 in   Overcast
3:56 PM 78.1 °F - 73.0 °F 84% 29.78 in 10.0 mi SSW 11.5 mph - 0.00 in   Mostly Cloudy
4:42 PM 80.6 °F 85.4 °F 73.4 °F 79% 29.78 in 10.0 mi SSW 11.5 mph - N/A   Mostly Cloudy
4:51 PM 80.6 °F 85.4 °F 73.4 °F 79% 29.78 in 10.0 mi South 11.5 mph - N/A   Mostly Cloudy
4:56 PM 79.0 °F - 73.0 °F 82% 29.78 in 10.0 mi South 13.8 mph 18.4 mph N/A   Overcast
5:56 PM 79.0 °F - 73.9 °F 84% 29.78 in 10.0 mi South 13.8 mph - N/A   Overcast
6:15 PM 78.8 °F - 73.4 °F 83% 29.78 in 10.0 mi South 10.4 mph 19.6 mph N/A   Overcast
6:56 PM 79.0 °F - 73.0 °F 82% 29.79 in 10.0 mi SSW 11.5 mph - N/A   Partly Cloudy
7:44 PM 78.8 °F - 73.4 °F 83% 29.80 in 10.0 mi SSW 5.8 mph - N/A   Overcast
7:56 PM 78.1 °F - 73.9 °F 87% 29.80 in 10.0 mi South 8.1 mph - N/A   Mostly Cloudy
8:08 PM 78.8 °F - 73.4 °F 83% 29.81 in 10.0 mi SSW 8.1 mph - N/A   Mostly Cloudy
8:56 PM 78.1 °F - 73.0 °F 84% 29.81 in 10.0 mi SSW 8.1 mph - N/A   Mostly Cloudy
9:14 PM 78.8 °F - 73.4 °F 83% 29.82 in 10.0 mi South 10.4 mph - N/A   Overcast
9:27 PM 78.8 °F - 73.4 °F 83% 29.82 in 10.0 mi South 9.2 mph - N/A   Overcast
9:56 PM 79.0 °F - 75.0 °F 88% 29.81 in 10.0 mi South 8.1 mph - N/A   Overcast
10:24 PM 78.8 °F - 75.2 °F 89% 29.82 in 10.0 mi SSW 9.2 mph - N/A   Overcast
10:56 PM 79.0 °F - 75.0 °F 88% 29.81 in 9.0 mi SSW 6.9 mph - N/A   Overcast
11:07 PM 78.8 °F - 75.2 °F 89% 29.81 in 10.0 mi South 8.1 mph - N/A   Overcast
11:19 PM 78.8 °F - 75.2 °F 89% 29.82 in 10.0 mi SSW 4.6 mph - N/A   Overcast
11:36 PM 78.8 °F - 75.2 °F 89% 29.82 in 10.0 mi SSW 5.8 mph - N/A   Overcast
11:56 PM 79.0 °F - 75.9 °F 90% 29.81 in 10.0 mi SSW 8.1 mph - N/A   Overcast